| time (UTC) | temp F | wind direction | speed MPH | gust MPH | rain 1hr in | rain 24hr in | rain mn in | humidity % | barometer mb |
| 20260906175903 | 69 | 186 | 2.0 | 2.0 | 0.00 | 0.00 | 0.00 | 99 | 977.0 |
| 20260906175358 | 69 | 138 | 2.0 | 2.0 | 0.00 | 0.00 | 0.00 | 99 | 977.0 |
| 20260906174856 | 69 | 138 | 0.0 | 0.0 | 0.00 | 0.00 | 0.00 | 99 | 977.3 |
| 20260906174356 | 69 | 121 | 2.0 | 2.0 | 0.00 | 0.00 | 0.00 | 99 | 977.0 |
| 20260906173851 | 69 | 138 | 4.0 | 4.0 | 0.00 | 0.00 | 0.00 | 99 | 977.0 |
| 20260906173347 | 69 | 90 | 2.0 | 2.0 | 0.00 | 0.00 | 0.00 | 99 | 977.0 |
| 20260906172845 | 69 | 12 | 0.0 | 0.0 | 0.00 | 0.00 | 0.00 | 99 | 977.3 |
| 20260906172342 | 69 | 48 | 2.0 | 2.0 | 0.00 | 0.00 | 0.00 | 99 | 977.6 |
| 20260906171837 | 69 | 176 | 3.0 | 3.0 | 0.00 | 0.00 | 0.00 | 99 | 977.3 |
| 20260906171337 | 70 | 134 | 3.0 | 3.0 | 0.00 | 0.00 | 0.00 | 98 | 977.6 |
| 20260906170833 | 69 | 144 | 4.0 | 5.0 | 0.00 | 0.00 | 0.00 | 98 | 977.6 |
| 20260906170329 | 69 | 108 | 6.0 | 6.0 | 0.00 | 0.00 | 0.00 | 98 | 978.0 |
| 20260906165825 | 70 | 128 | 2.0 | 2.0 | 0.00 | 0.00 | 0.00 | 98 | 977.6 |
| 20260906165324 | 70 | 138 | 2.0 | 2.0 | 0.00 | 0.00 | 0.00 | 98 | 977.6 |
| 20260906164819 | 70 | 143 | 4.0 | 4.0 | 0.00 | 0.00 | 0.00 | 98 | 977.6 |
| 20260906164319 | 70 | 84 | 2.0 | 2.0 | 0.00 | 0.00 | 0.00 | 98 | 977.6 |
| 20260906163815 | 70 | 121 | 4.0 | 4.0 | 0.00 | 0.00 | 0.00 | 98 | 978.0 |
| 20260906163311 | 70 | 102 | 2.0 | 2.0 | 0.00 | 0.00 | 0.00 | 98 | 977.6 |
| 20260906162808 | 70 | 126 | 2.0 | 2.0 | 0.00 | 0.00 | 0.00 | 98 | 977.3 |
| 20260906162307 | 70 | 84 | 4.0 | 4.0 | 0.00 | 0.00 | 0.00 | 98 | 977.3 |
| 20260906161802 | 70 | 146 | 4.0 | 5.0 | 0.00 | 0.00 | 0.00 | 97 | 977.6 |
| 20260906161301 | 70 | 65 | 2.0 | 2.0 | 0.00 | 0.00 | 0.00 | 97 | 977.3 |
| 20260906160800 | 70 | 60 | 4.0 | 4.0 | 0.00 | 0.00 | 0.00 | 97 | 977.6 |
| 20260906160255 | 70 | 126 | 2.0 | 2.0 | 0.00 | 0.00 | 0.00 | 97 | 977.6 |
| 20260906155753 | 70 | 78 | 2.0 | 2.0 | 0.00 | 0.00 | 0.00 | 97 | 978.3 |
| 20260906155248 | 70 | 132 | 2.0 | 2.0 | 0.00 | 0.00 | 0.00 | 97 | 977.3 |
| 20260906154743 | 70 | 84 | 3.0 | 3.0 | 0.00 | 0.00 | 0.00 | 97 | 977.0 |
| 20260906154238 | 70 | 132 | 2.0 | 2.0 | 0.00 | 0.00 | 0.00 | 97 | 977.3 |
| 20260906153736 | 70 | 108 | 2.0 | 2.0 | 0.00 | 0.00 | 0.00 | 97 | 977.6 |
| 20260906153232 | 70 | 144 | 2.0 | 2.0 | 0.00 | 0.00 | 0.00 | 97 | 978.0 |
| 20260906152727 | 70 | 138 | 2.0 | 2.0 | 0.00 | 0.00 | 0.00 | 97 | 977.3 |
| 20260906152226 | 70 | 138 | 4.0 | 4.0 | 0.00 | 0.00 | 0.00 | 97 | 977.0 |
| 20260906151721 | 70 | 132 | 6.0 | 7.0 | 0.00 | 0.00 | 0.00 | 96 | 977.0 |
| 20260906151217 | 70 | 149 | 4.0 | 4.0 | 0.00 | 0.00 | 0.00 | 96 | 977.0 |
| 20260906150712 | 70 | 138 | 4.0 | 4.0 | 0.00 | 0.00 | 0.00 | 96 | 977.3 |
| 20260906150207 | 70 | 144 | 2.0 | 2.0 | 0.00 | 0.00 | 0.00 | 96 | 977.3 |
| 20260906145706 | 71 | 138 | 3.0 | 3.0 | 0.00 | 0.00 | 0.00 | 96 | 977.3 |
| 20260906145205 | 71 | 133 | 2.0 | 2.0 | 0.00 | 0.00 | 0.00 | 96 | 977.3 |
| 20260906144700 | 71 | 138 | 2.0 | 2.0 | 0.00 | 0.00 | 0.00 | 96 | 977.6 |
| 20260906144155 | 70 | 138 | 4.0 | 4.0 | 0.00 | 0.00 | 0.00 | 96 | 977.3 |
| 20260906143655 | 70 | 152 | 4.0 | 4.0 | 0.00 | 0.00 | 0.00 | 96 | 977.3 |
| 20260906143152 | 70 | 138 | 4.0 | 5.0 | 0.00 | 0.00 | 0.00 | 96 | 977.3 |
| 20260906142651 | 71 | 142 | 4.0 | 4.0 | 0.00 | 0.00 | 0.00 | 96 | 977.3 |
| 20260906142146 | 71 | 104 | 6.0 | 7.0 | 0.00 | 0.00 | 0.00 | 96 | 977.3 |
| 20260906141645 | 71 | 150 | 2.0 | 2.0 | 0.00 | 0.00 | 0.00 | 95 | 977.3 |
| 20260906141140 | 71 | 98 | 4.0 | 4.0 | 0.00 | 0.00 | 0.00 | 95 | 977.3 |
| 20260906140639 | 71 | 120 | 7.0 | 7.0 | 0.00 | 0.00 | 0.00 | 95 | 977.3 |
| 20260906140135 | 71 | 72 | 4.0 | 4.0 | 0.00 | 0.00 | 0.00 | 95 | 977.3 |
| 20260906135631 | 71 | 72 | 4.0 | 5.0 | 0.00 | 0.00 | 0.00 | 94 | 977.3 |
| 20260906135127 | 72 | 151 | 3.0 | 3.0 | 0.00 | 0.00 | 0.00 | 94 | 977.0 |
| 20260906134623 | 72 | 162 | 4.0 | 4.0 | 0.00 | 0.00 | 0.00 | 93 | 977.0 |
| 20260906134118 | 72 | 151 | 3.0 | 3.0 | 0.00 | 0.00 | 0.00 | 93 | 977.3 |
| 20260906133614 | 71 | 138 | 2.0 | 2.0 | 0.00 | 0.00 | 0.00 | 94 | 977.3 |
| 20260906133109 | 71 | 133 | 4.0 | 5.0 | 0.00 | 0.00 | 0.00 | 95 | 977.3 |
| 20260906132604 | 71 | 150 | 4.0 | 4.0 | 0.00 | 0.00 | 0.00 | 96 | 977.3 |
| 20260906132100 | 71 | 133 | 2.0 | 2.0 | 0.00 | 0.00 | 0.00 | 96 | 977.6 |
| 20260906131555 | 70 | 128 | 2.0 | 2.0 | 0.00 | 0.00 | 0.00 | 96 | 977.3 |
| 20260906131050 | 70 | 168 | 3.0 | 3.0 | 0.00 | 0.00 | 0.00 | 96 | 977.3 |
| 20260906130549 | 70 | 150 | 2.0 | 2.0 | 0.00 | 0.00 | 0.00 | 96 | 977.3 |
| 20260906130045 | 70 | 138 | 3.0 | 3.0 | 0.00 | 0.00 | 0.00 | 97 | 977.0 |
| 20260906125542 | 70 | 132 | 2.0 | 2.0 | 0.00 | 0.00 | 0.00 | 97 | 977.0 |
| 20260906125037 | 70 | 148 | 2.0 | 2.0 | 0.00 | 0.00 | 0.00 | 97 | 977.0 |
| 20260906124532 | 70 | 132 | 2.0 | 2.0 | 0.00 | 0.00 | 0.00 | 97 | 977.0 |
| 20260906124027 | 69 | 138 | 2.0 | 2.0 | 0.00 | 0.00 | 0.00 | 97 | 976.6 |
| 20260906123526 | 69 | 144 | 5.0 | 5.0 | 0.00 | 0.00 | 0.00 | 97 | 977.0 |
| 20260906123021 | 69 | 127 | 4.0 | 4.0 | 0.00 | 0.00 | 0.00 | 97 | 977.0 |
| 20260906122515 | 69 | 134 | 2.0 | 2.0 | 0.00 | 0.00 | 0.00 | 97 | 976.6 |
| 20260906122012 | 69 | 138 | 2.0 | 2.0 | 0.00 | 0.00 | 0.00 | 97 | 976.6 |
| 20260906121508 | 69 | 138 | 0.0 | 0.0 | 0.00 | 0.00 | 0.00 | 97 | 976.6 |
| 20260906121003 | 69 | 116 | 2.0 | 2.0 | 0.00 | 0.00 | 0.00 | 97 | 976.6 |
| 20260906120458 | 69 | 138 | 2.0 | 2.0 | 0.00 | 0.00 | 0.00 | 97 | 976.6 |
| 20260906115955 | 69 | 108 | 2.0 | 2.0 | 0.00 | 0.00 | 0.00 | 97 | 976.3 |
| 20260906115450 | 69 | 138 | 3.0 | 3.0 | 0.00 | 0.00 | 0.00 | 97 | 976.6 |
| 20260906114949 | 69 | 138 | 2.0 | 2.0 | 0.00 | 0.00 | 0.00 | 97 | 976.3 |
| 20260906114444 | 69 | 138 | 2.0 | 2.0 | 0.00 | 0.00 | 0.00 | 97 | 976.6 |
| 20260906113940 | 69 | 132 | 2.0 | 2.0 | 0.00 | 0.00 | 0.00 | 97 | 976.3 |
| 20260906113439 | 69 | 132 | 2.0 | 2.0 | 0.00 | 0.00 | 0.00 | 97 | 976.3 |
| 20260906112934 | 69 | 132 | 2.0 | 2.0 | 0.00 | 0.00 | 0.00 | 97 | 976.3 |
| 20260906112430 | 69 | 133 | 0.0 | 0.0 | 0.00 | 0.00 | 0.00 | 97 | 976.3 |
| 20260906111925 | 69 | 138 | 4.0 | 4.0 | 0.00 | 0.00 | 0.00 | 96 | 976.3 |
| 20260906111425 | 69 | 126 | 2.0 | 2.0 | 0.00 | 0.00 | 0.00 | 97 | 976.3 |
| 20260906110920 | 70 | 84 | 2.0 | 2.0 | 0.00 | 0.00 | 0.00 | 96 | 976.6 |
| 20260906110415 | 70 | 84 | 2.0 | 2.0 | 0.00 | 0.00 | 0.00 | 96 | 976.3 |
| 20260906105914 | 70 | 142 | 2.0 | 2.0 | 0.00 | 0.00 | 0.00 | 96 | 976.3 |
| 20260906105410 | 70 | 150 | 2.0 | 2.0 | 0.00 | 0.00 | 0.00 | 96 | 976.3 |
| 20260906104906 | 70 | 156 | 2.0 | 2.0 | 0.00 | 0.00 | 0.00 | 96 | 976.3 |
| 20260906104404 | 70 | 123 | 2.0 | 2.0 | 0.00 | 0.00 | 0.00 | 96 | 976.3 |
| 20260906103903 | 70 | 134 | 4.0 | 4.0 | 0.00 | 0.00 | 0.00 | 96 | 976.0 |
| 20260906103401 | 70 | 72 | 4.0 | 4.0 | 0.00 | 0.00 | 0.00 | 96 | 976.3 |
| 20260906102858 | 70 | 132 | 2.0 | 2.0 | 0.00 | 0.00 | 0.00 | 96 | 976.0 |
| 20260906102357 | 70 | 138 | 2.0 | 2.0 | 0.00 | 0.00 | 0.00 | 96 | 976.0 |
| 20260906101851 | 70 | 134 | 2.0 | 2.0 | 0.00 | 0.00 | 0.00 | 96 | 976.0 |
| 20260906101347 | 70 | 138 | 3.0 | 3.0 | 0.00 | 0.00 | 0.00 | 96 | 976.0 |
| 20260906100842 | 70 | 132 | 2.0 | 2.0 | 0.00 | 0.00 | 0.00 | 95 | 976.3 |
| 20260906100341 | 70 | 138 | 2.0 | 2.0 | 0.00 | 0.00 | 0.00 | 95 | 976.3 |
| 20260906095836 | 70 | 138 | 4.0 | 4.0 | 0.00 | 0.00 | 0.00 | 95 | 976.3 |
| 20260906095332 | 70 | 149 | 2.0 | 2.0 | 0.00 | 0.00 | 0.00 | 95 | 976.3 |
| 20260906094831 | 70 | 184 | 2.0 | 2.0 | 0.00 | 0.00 | 0.00 | 95 | 976.3 |
| 20260906094327 | 70 | 134 | 4.0 | 4.0 | 0.00 | 0.00 | 0.00 | 95 | 976.3 |
| 20260906093823 | 71 | 155 | 0.0 | 0.0 | 0.00 | 0.00 | 0.00 | 95 | 976.3 |
| 20260906093318 | 71 | 156 | 2.0 | 2.0 | 0.00 | 0.00 | 0.00 | 94 | 976.3 |
| 20260906092808 | 71 | 198 | 4.0 | 4.0 | 0.00 | 0.00 | 0.00 | 94 | 976.0 |
| 20260906092307 | 71 | 126 | 2.0 | 2.0 | 0.00 | 0.00 | 0.00 | 95 | 976.0 |
| 20260906091803 | 71 | 133 | 2.0 | 2.0 | 0.00 | 0.00 | 0.00 | 95 | 975.6 |
| 20260906091259 | 71 | 143 | 0.0 | 0.0 | 0.00 | 0.00 | 0.00 | 96 | 975.6 |
| 20260906090755 | 71 | 132 | 2.0 | 2.0 | 0.00 | 0.00 | 0.00 | 96 | 975.6 |
| 20260906090254 | 71 | 128 | 0.0 | 0.0 | 0.00 | 0.00 | 0.00 | 96 | 976.0 |
| 20260906085754 | 71 | 133 | 2.0 | 2.0 | 0.00 | 0.00 | 0.00 | 95 | 975.6 |
| 20260906085253 | 71 | 180 | 2.0 | 2.0 | 0.00 | 0.00 | 0.00 | 95 | 976.0 |
| 20260906084748 | 71 | 143 | 2.0 | 2.0 | 0.00 | 0.00 | 0.00 | 95 | 976.0 |
| 20260906084248 | 71 | 181 | 2.0 | 2.0 | 0.00 | 0.00 | 0.00 | 96 | 976.0 |
| 20260906083743 | 71 | 144 | 0.0 | 0.0 | 0.00 | 0.00 | 0.00 | 96 | 975.6 |
| 20260906083238 | 71 | 161 | 0.0 | 0.0 | 0.00 | 0.00 | 0.00 | 96 | 975.6 |
| 20260906082734 | 71 | 128 | 0.0 | 0.0 | 0.00 | 0.00 | 0.00 | 96 | 975.3 |
| 20260906082229 | 71 | 138 | 0.0 | 0.0 | 0.00 | 0.00 | 0.00 | 96 | 975.3 |
| 20260906081725 | 71 | 138 | 2.0 | 2.0 | 0.00 | 0.00 | 0.00 | 96 | 975.6 |
| 20260906081225 | 71 | 132 | 2.0 | 2.0 | 0.00 | 0.00 | 0.00 | 96 | 975.3 |
| 20260906080722 | 71 | 138 | 2.0 | 2.0 | 0.00 | 0.00 | 0.00 | 95 | 975.6 |
| 20260906080218 | 71 | 142 | 4.0 | 4.0 | 0.00 | 0.00 | 0.00 | 96 | 975.6 |
| 20260906075717 | 71 | 126 | 2.0 | 2.0 | 0.00 | 0.00 | 0.00 | 96 | 975.6 |
| 20260906075212 | 71 | 138 | 3.0 | 3.0 | 0.00 | 0.00 | 0.00 | 96 | 976.0 |
| 20260906074707 | 71 | 114 | 4.0 | 4.0 | 0.00 | 0.00 | 0.00 | 96 | 976.0 |
| 20260906074206 | 71 | 138 | 5.0 | 5.0 | 0.00 | 0.00 | 0.00 | 96 | 975.6 |
| 20260906073701 | 71 | 149 | 3.0 | 3.0 | 0.00 | 0.00 | 0.00 | 96 | 975.6 |
| 20260906073156 | 71 | 127 | 2.0 | 2.0 | 0.00 | 0.00 | 0.00 | 96 | 975.6 |
| 20260906072652 | 71 | 78 | 4.0 | 4.0 | 0.00 | 0.00 | 0.00 | 96 | 975.6 |
| 20260906072147 | 71 | 138 | 4.0 | 4.0 | 0.00 | 0.00 | 0.00 | 97 | 976.0 |
| 20260906071644 | 71 | 90 | 4.0 | 5.0 | 0.00 | 0.00 | 0.00 | 97 | 976.3 |
| 20260906071138 | 71 | 76 | 2.0 | 2.0 | 0.00 | 0.00 | 0.00 | 97 | 976.3 |
| 20260906070635 | 71 | 42 | 2.0 | 2.0 | 0.00 | 0.00 | 0.00 | 97 | 976.0 |
| 20260906070130 | 71 | 133 | 2.0 | 2.0 | 0.00 | 0.00 | 0.00 | 98 | 976.0 |
| 20260906065630 | 71 | 134 | 0.0 | 0.0 | 0.00 | 0.00 | 0.00 | 99 | 976.0 |
| 20260906065125 | 71 | 162 | 3.0 | 3.0 | 0.00 | 0.00 | 0.00 | 99 | 975.6 |
| 20260906064620 | 71 | 138 | 2.0 | 2.0 | 0.00 | 0.00 | 0.00 | 99 | 976.0 |
| 20260906064115 | 71 | 132 | 2.0 | 2.0 | 0.00 | 0.00 | 0.00 | 99 | 976.0 |
| 20260906063615 | 71 | 110 | 2.0 | 2.0 | 0.00 | 0.00 | 0.00 | 99 | 975.6 |
| 20260906063112 | 71 | 90 | 0.0 | 0.0 | 0.00 | 0.00 | 0.00 | 99 | 976.3 |
| 20260906062607 | 71 | 72 | 2.0 | 2.0 | 0.00 | 0.00 | 0.00 | 99 | 976.0 |
| 20260906062106 | 71 | 132 | 2.0 | 2.0 | 0.00 | 0.00 | 0.00 | 99 | 976.0 |
| 20260906061603 | 71 | 160 | 2.0 | 2.0 | 0.00 | 0.00 | 0.00 | 99 | 976.0 |
| 20260906061102 | 71 | 54 | 2.0 | 2.0 | 0.00 | 0.00 | 0.00 | 99 | 976.0 |
| 20260906060559 | 71 | 84 | 0.0 | 0.0 | 0.00 | 0.00 | 0.00 | 99 | 976.0 |
| 20260906060056 | 71 | 102 | 2.0 | 2.0 | 0.00 | 0.00 | 0.00 | 99 | 976.0 |
| 20260906055551 | 71 | 120 | 0.0 | 0.0 | 0.00 | 0.00 | 0.00 | 98 | 976.0 |
| 20260906055047 | 71 | 138 | 0.0 | 0.0 | 0.00 | 0.00 | 0.00 | 98 | 976.0 |
| 20260906054547 | 71 | 148 | 2.0 | 2.0 | 0.00 | 0.00 | 0.00 | 98 | 976.0 |
| 20260906054042 | 71 | 96 | 0.0 | 0.0 | 0.00 | 0.00 | 0.00 | 99 | 976.3 |
| 20260906053538 | 71 | 122 | 0.0 | 0.0 | 0.00 | 0.00 | 0.00 | 99 | 976.0 |
| 20260906053034 | 71 | 128 | 0.0 | 0.0 | 0.00 | 0.00 | 0.00 | 99 | 976.0 |
| 20260906052529 | 71 | 84 | 2.0 | 2.0 | 0.00 | 0.00 | 0.00 | 99 | 975.6 |
| 20260906052026 | 70 | 66 | 0.0 | 0.0 | 0.00 | 0.00 | 0.00 | 99 | 975.6 |
| 20260906051527 | 70 | 133 | 0.0 | 0.0 | 0.00 | 0.00 | 0.00 | 99 | 975.6 |
| 20260906051022 | 70 | 142 | 0.0 | 0.0 | 0.00 | 0.00 | 0.00 | 99 | 976.0 |
| 20260906050517 | 70 | 98 | 0.0 | 0.0 | 0.00 | 0.00 | 0.00 | 99 | 975.6 |
| 20260906050012 | 70 | 122 | 2.0 | 2.0 | 0.00 | 0.00 | 0.00 | 99 | 975.6 |
| 20260906045510 | 70 | 144 | 0.0 | 0.0 | 0.00 | 0.00 | 0.00 | 99 | 975.6 |
| 20260906045006 | 70 | 149 | 2.0 | 2.0 | 0.00 | 0.00 | 0.00 | 99 | 976.0 |
| 20260906044501 | 70 | 72 | 2.0 | 2.0 | 0.00 | 0.00 | 0.00 | 99 | 976.0 |
| 20260906043957 | 70 | 72 | 0.0 | 0.0 | 0.00 | 0.00 | 0.00 | 99 | 975.6 |
| 20260906043452 | 70 | 90 | 0.0 | 0.0 | 0.00 | 0.00 | 0.00 | 99 | 975.6 |
| 20260906042948 | 70 | 90 | 0.0 | 0.0 | 0.00 | 0.00 | 0.00 | 99 | 975.6 |
| 20260906042447 | 70 | 84 | 2.0 | 2.0 | 0.00 | 0.00 | 0.00 | 99 | 975.6 |
| 20260906041942 | 71 | 84 | 0.0 | 0.0 | 0.00 | 0.00 | 0.00 | 99 | 975.3 |
| 20260906041439 | 71 | 84 | 0.0 | 0.0 | 0.00 | 0.00 | 0.00 | 99 | 975.6 |
| 20260906040938 | 71 | 132 | 0.0 | 0.0 | 0.00 | 0.00 | 0.00 | 99 | 976.0 |
| 20260906040433 | 71 | 132 | 0.0 | 0.0 | 0.00 | 0.00 | 0.00 | 99 | 975.6 |
| 20260906035928 | 71 | 138 | 0.0 | 0.0 | 0.00 | 0.00 | 0.00 | 99 | 975.6 |
| 20260906035423 | 71 | 66 | 2.0 | 2.0 | 0.00 | 0.00 | 0.00 | 99 | 975.3 |
| 20260906034919 | 71 | 78 | 0.0 | 0.0 | 0.00 | 0.00 | 0.00 | 99 | 975.6 |
| 20260906034419 | 71 | 72 | 0.0 | 0.0 | 0.00 | 0.00 | 0.00 | 99 | 975.6 |
| 20260906033914 | 71 | 96 | 0.0 | 0.0 | 0.00 | 0.00 | 0.00 | 99 | 975.6 |
| 20260906033414 | 71 | 96 | 0.0 | 0.0 | 0.00 | 0.00 | 0.00 | 99 | 975.6 |
| 20260906032910 | 71 | 78 | 2.0 | 2.0 | 0.00 | 0.00 | 0.00 | 99 | 975.6 |
| 20260906032406 | 71 | 90 | 0.0 | 0.0 | 0.00 | 0.00 | 0.00 | 99 | 975.6 |
| 20260906031900 | 72 | 90 | 2.0 | 2.0 | 0.00 | 0.00 | 0.00 | 99 | 975.6 |
| 20260906031356 | 72 | 108 | 0.0 | 0.0 | 0.00 | 0.00 | 0.00 | 99 | 975.6 |
| 20260906030851 | 72 | 96 | 2.0 | 2.0 | 0.00 | 0.00 | 0.00 | 99 | 975.6 |
| 20260906030346 | 72 | 72 | 0.0 | 0.0 | 0.00 | 0.00 | 0.00 | 99 | 975.6 |
| 20260906025841 | 73 | 126 | 0.0 | 0.0 | 0.00 | 0.00 | 0.00 | 98 | 975.6 |
| 20260906025334 | 73 | 142 | 0.0 | 0.0 | 0.00 | 0.00 | 0.00 | 98 | 976.0 |
| 20260906024833 | 73 | 108 | 0.0 | 0.0 | 0.00 | 0.00 | 0.00 | 98 | 975.6 |
| 20260906024333 | 73 | 122 | 2.0 | 2.0 | 0.00 | 0.00 | 0.00 | 98 | 976.0 |
| 20260906023828 | 73 | 90 | 0.0 | 0.0 | 0.00 | 0.00 | 0.00 | 98 | 976.0 |
| 20260906023324 | 73 | 78 | 0.0 | 0.0 | 0.00 | 0.00 | 0.00 | 98 | 976.0 |
| 20260906022820 | 73 | 78 | 2.0 | 2.0 | 0.00 | 0.00 | 0.00 | 98 | 975.6 |
| 20260906022314 | 73 | 84 | 0.0 | 0.0 | 0.00 | 0.00 | 0.00 | 98 | 975.6 |
| 20260906021811 | 73 | 84 | 0.0 | 0.0 | 0.00 | 0.00 | 0.00 | 98 | 975.3 |
| 20260906021310 | 73 | 126 | 2.0 | 2.0 | 0.00 | 0.00 | 0.00 | 97 | 975.6 |
| 20260906020810 | 73 | 60 | 0.0 | 0.0 | 0.00 | 0.00 | 0.00 | 97 | 975.6 |
| 20260906020309 | 73 | 76 | 0.0 | 0.0 | 0.00 | 0.00 | 0.00 | 96 | 975.3 |
| 20260906015804 | 73 | 76 | 0.0 | 0.0 | 0.00 | 0.00 | 0.00 | 96 | 975.6 |
| 20260906015305 | 73 | 76 | 2.0 | 2.0 | 0.00 | 0.00 | 0.00 | 96 | 975.3 |
| 20260906014757 | 73 | 78 | 0.0 | 0.0 | 0.00 | 0.00 | 0.00 | 96 | 975.3 |
| 20260906014253 | 74 | 78 | 0.0 | 0.0 | 0.00 | 0.00 | 0.00 | 96 | 974.9 |
| 20260906013749 | 74 | 84 | 2.0 | 2.0 | 0.00 | 0.00 | 0.00 | 95 | 975.3 |
| 20260906013249 | 74 | 78 | 2.0 | 2.0 | 0.00 | 0.00 | 0.00 | 95 | 975.3 |
| 20260906012744 | 74 | 66 | 0.0 | 0.0 | 0.00 | 0.00 | 0.00 | 94 | 974.9 |
| 20260906012239 | 74 | 72 | 0.0 | 0.0 | 0.00 | 0.00 | 0.00 | 94 | 974.9 |
| 20260906011735 | 75 | 90 | 2.0 | 2.0 | 0.00 | 0.00 | 0.00 | 93 | 974.6 |
| 20260906011234 | 75 | 76 | 2.0 | 2.0 | 0.00 | 0.00 | 0.00 | 93 | 974.6 |
| 20260906010730 | 76 | 114 | 2.0 | 2.0 | 0.00 | 0.00 | 0.00 | 92 | 974.9 |
| 20260906010226 | 76 | 122 | 2.0 | 2.0 | 0.00 | 0.00 | 0.00 | 92 | 974.6 |
| 20260906005721 | 76 | 90 | 0.0 | 0.0 | 0.00 | 0.00 | 0.00 | 93 | 974.6 |
| 20260906005220 | 76 | 78 | 0.0 | 0.0 | 0.00 | 0.00 | 0.00 | 93 | 974.6 |
| 20260906004719 | 77 | 78 | 2.0 | 2.0 | 0.00 | 0.00 | 0.00 | 93 | 974.6 |
| 20260906004214 | 77 | 76 | 2.0 | 2.0 | 0.00 | 0.00 | 0.00 | 92 | 974.6 |
| 20260906003709 | 78 | 76 | 3.0 | 3.0 | 0.00 | 0.00 | 0.00 | 91 | 974.6 |
| 20260906003205 | 78 | 70 | 2.0 | 2.0 | 0.00 | 0.00 | 0.00 | 89 | 974.6 |
| 20260906002705 | 79 | 84 | 0.0 | 0.0 | 0.00 | 0.00 | 0.00 | 88 | 974.6 |
| 20260906002200 | 79 | 84 | 2.0 | 2.0 | 0.00 | 0.00 | 0.00 | 87 | 974.6 |
| 20260906001655 | 80 | 84 | 2.0 | 2.0 | 0.00 | 0.00 | 0.00 | 87 | 974.6 |
| 20260906001155 | 80 | 122 | 2.0 | 2.0 | 0.00 | 0.00 | 0.00 | 86 | 974.6 |
| 20260906000651 | 80 | 127 | 2.0 | 2.0 | 0.00 | 0.00 | 0.00 | 85 | 974.6 |
| 20260906000146 | 80 | 132 | 2.0 | 2.0 | 0.00 | 0.00 | 0.00 | 86 | 974.6 |
| 20260905235645 | 80 | 138 | 2.0 | 2.0 | 0.00 | 0.00 | 0.00 | 85 | 974.6 |
| 20260905235140 | 81 | 144 | 2.0 | 2.0 | 0.00 | 0.00 | 0.00 | 84 | 974.6 |
| 20260905234635 | 81 | 121 | 2.0 | 2.0 | 0.00 | 0.00 | 0.00 | 84 | 974.6 |
| 20260905234131 | 80 | 102 | 0.0 | 0.0 | 0.00 | 0.00 | 0.00 | 84 | 974.3 |
| 20260905233626 | 80 | 132 | 0.0 | 0.0 | 0.00 | 0.00 | 0.00 | 84 | 974.6 |
| 20260905233125 | 81 | 96 | 2.0 | 2.0 | 0.00 | 0.00 | 0.00 | 83 | 974.6 |
| 20260905232621 | 81 | 132 | 2.0 | 2.0 | 0.00 | 0.00 | 0.00 | 83 | 974.6 |
| 20260905232117 | 81 | 133 | 2.0 | 2.0 | 0.00 | 0.00 | 0.00 | 83 | 974.6 |
| 20260905231617 | 81 | 156 | 2.0 | 2.0 | 0.00 | 0.00 | 0.00 | 83 | 974.3 |
| 20260905231113 | 81 | 194 | 2.0 | 2.0 | 0.00 | 0.00 | 0.00 | 82 | 974.3 |
| 20260905230609 | 81 | 188 | 0.0 | 0.0 | 0.00 | 0.00 | 0.00 | 82 | 974.6 |
| 20260905230107 | 81 | 132 | 2.0 | 2.0 | 0.00 | 0.00 | 0.00 | 82 | 974.3 |
| 20260905225606 | 81 | 132 | 2.0 | 2.0 | 0.00 | 0.00 | 0.00 | 82 | 974.3 |
| 20260905225101 | 81 | 130 | 2.0 | 2.0 | 0.00 | 0.00 | 0.00 | 82 | 974.3 |
| 20260905224601 | 81 | 99 | 4.0 | 4.0 | 0.00 | 0.00 | 0.00 | 81 | 974.3 |
| 20260905224101 | 81 | 144 | 2.0 | 2.0 | 0.00 | 0.00 | 0.00 | 82 | 974.3 |
| 20260905223558 | 81 | 132 | 2.0 | 2.0 | 0.00 | 0.00 | 0.00 | 83 | 973.9 |
| 20260905223054 | 81 | 132 | 2.0 | 2.0 | 0.00 | 0.00 | 0.00 | 84 | 974.3 |
| 20260905222554 | 81 | 102 | 2.0 | 2.0 | 0.00 | 0.00 | 0.00 | 84 | 973.9 |
| 20260905222049 | 80 | 120 | 2.0 | 2.0 | 0.00 | 0.00 | 0.00 | 84 | 974.3 |
| 20260905221546 | 80 | 132 | 3.0 | 3.0 | 0.00 | 0.00 | 0.00 | 84 | 973.9 |
| 20260905221042 | 80 | 96 | 2.0 | 2.0 | 0.00 | 0.00 | 0.00 | 85 | 973.9 |
| 20260905220537 | 80 | 132 | 4.0 | 4.0 | 0.00 | 0.00 | 0.00 | 86 | 973.9 |
| 20260905220033 | 80 | 130 | 3.0 | 3.0 | 0.00 | 0.00 | 0.00 | 84 | 973.6 |
| 20260905215532 | 80 | 146 | 2.0 | 2.0 | 0.00 | 0.00 | 0.00 | 84 | 973.9 |
| 20260905215029 | 80 | 132 | 3.0 | 3.0 | 0.00 | 0.00 | 0.00 | 84 | 973.6 |
| 20260905214524 | 81 | 72 | 4.0 | 5.0 | 0.00 | 0.00 | 0.00 | 82 | 973.2 |
| 20260905214019 | 81 | 86 | 2.0 | 2.0 | 0.00 | 0.00 | 0.00 | 83 | 973.6 |
| 20260905213514 | 82 | 138 | 4.0 | 4.0 | 0.00 | 0.00 | 0.00 | 82 | 973.9 |
| 20260905213010 | 82 | 75 | 2.0 | 2.0 | 0.00 | 0.00 | 0.00 | 82 | 974.3 |
| 20260905212505 | 82 | 60 | 4.0 | 4.0 | 0.00 | 0.00 | 0.00 | 80 | 973.9 |
| 20260905212004 | 82 | 70 | 2.0 | 2.0 | 0.00 | 0.00 | 0.00 | 80 | 973.9 |
| 20260905211459 | 82 | 71 | 2.0 | 2.0 | 0.00 | 0.00 | 0.00 | 80 | 974.3 |
| 20260905210955 | 81 | 66 | 2.0 | 2.0 | 0.00 | 0.00 | 0.00 | 80 | 974.3 |
| 20260905210451 | 82 | 138 | 4.0 | 4.0 | 0.00 | 0.00 | 0.00 | 78 | 974.3 |
| 20260905205950 | 82 | 66 | 2.0 | 2.0 | 0.00 | 0.00 | 0.00 | 77 | 974.6 |
| 20260905205445 | 82 | 96 | 4.0 | 4.0 | 0.00 | 0.00 | 0.00 | 74 | 974.3 |
| 20260905204943 | 82 | 71 | 4.0 | 4.0 | 0.00 | 0.00 | 0.00 | 75 | 974.3 |
| 20260905204439 | 83 | 83 | 2.0 | 2.0 | 0.00 | 0.00 | 0.00 | 73 | 974.6 |
| 20260905203938 | 83 | 84 | 3.0 | 3.0 | 0.00 | 0.00 | 0.00 | 73 | 973.9 |
| 20260905203434 | 82 | 90 | 5.0 | 6.0 | 0.00 | 0.00 | 0.00 | 74 | 974.3 |
| 20260905202930 | 82 | 48 | 7.0 | 8.0 | 0.00 | 0.00 | 0.00 | 75 | 974.3 |
| 20260905202425 | 82 | 84 | 5.0 | 6.0 | 0.00 | 0.00 | 0.00 | 75 | 974.3 |
| 20260905201920 | 81 | 150 | 2.0 | 2.0 | 0.00 | 0.00 | 0.00 | 76 | 974.3 |
| 20260905201415 | 80 | 144 | 7.0 | 8.0 | 0.00 | 0.00 | 0.00 | 75 | 973.9 |
| 20260905200915 | 80 | 108 | 2.0 | 2.0 | 0.00 | 0.00 | 0.00 | 77 | 974.3 |
| 20260905200411 | 80 | 96 | 2.0 | 2.0 | 0.00 | 0.00 | 0.00 | 78 | 974.3 |
| 20260905195909 | 79 | 97 | 2.0 | 2.0 | 0.00 | 0.00 | 0.00 | 79 | 974.3 |
| 20260905195404 | 79 | 114 | 2.0 | 2.0 | 0.00 | 0.00 | 0.00 | 79 | 974.6 |
| 20260905194900 | 80 | 132 | 3.0 | 3.0 | 0.00 | 0.00 | 0.00 | 80 | 974.3 |
| 20260905194359 | 79 | 91 | 2.0 | 2.0 | 0.00 | 0.00 | 0.00 | 81 | 974.3 |
| 20260905193859 | 78 | 144 | 2.0 | 2.0 | 0.00 | 0.00 | 0.00 | 82 | 974.3 |
| 20260905193354 | 78 | 140 | 2.0 | 2.0 | 0.00 | 0.00 | 0.00 | 82 | 973.9 |
| 20260905192850 | 78 | 104 | 0.0 | 0.0 | 0.00 | 0.00 | 0.00 | 82 | 973.6 |
| 20260905192345 | 78 | 138 | 2.0 | 2.0 | 0.00 | 0.00 | 0.00 | 83 | 973.9 |
| 20260905191844 | 78 | 144 | 2.0 | 2.0 | 0.00 | 0.00 | 0.00 | 82 | 973.6 |
| 20260905191344 | 78 | 120 | 2.0 | 2.0 | 0.00 | 0.00 | 0.00 | 82 | 973.9 |
| 20260905190843 | 77 | 58 | 2.0 | 2.0 | 0.00 | 0.00 | 0.00 | 83 | 973.6 |
| 20260905190342 | 77 | 138 | 2.0 | 2.0 | 0.00 | 0.00 | 0.00 | 84 | 973.9 |
| 20260905185841 | 77 | 126 | 4.0 | 4.0 | 0.00 | 0.00 | 0.00 | 83 | 974.3 |
| 20260905185337 | 77 | 150 | 2.0 | 2.0 | 0.00 | 0.00 | 0.00 | 83 | 974.3 |
| 20260905184835 | 77 | 134 | 4.0 | 4.0 | 0.00 | 0.00 | 0.00 | 84 | 974.6 |
| 20260905184335 | 77 | 126 | 5.0 | 5.0 | 0.00 | 0.00 | 0.00 | 83 | 974.6 |
| 20260905183833 | 77 | 114 | 0.0 | 0.0 | 0.00 | 0.00 | 0.00 | 84 | 974.3 |
| 20260905183329 | 77 | 42 | 2.0 | 2.0 | 0.00 | 0.00 | 0.00 | 84 | 974.3 |
| 20260905182824 | 78 | 78 | 2.0 | 2.0 | 0.00 | 0.00 | 0.00 | 83 | 974.6 |
| 20260905182323 | 78 | 142 | 0.0 | 0.0 | 0.00 | 0.00 | 0.00 | 81 | 974.6 |
| 20260905181819 | 77 | 182 | 0.0 | 0.0 | 0.00 | 0.00 | 0.00 | 82 | 974.6 |
| 20260905181318 | 77 | 120 | 2.0 | 2.0 | 0.00 | 0.00 | 0.00 | 82 | 974.3 |
| 20260905180817 | 77 | 139 | 4.0 | 4.0 | 0.00 | 0.00 | 0.00 | 82 | 973.9 |
| 20260905180313 | 76 | 64 | 5.0 | 6.0 | 0.00 | 0.00 | 0.00 | 83 | 973.6 |